SWR25 LSGG-LSZH

Flight info

Callsign SWR25
Flight time 0h 29m
Altitude 17000
Route SOSAL N871 BERSU
Aircraft A20N/M-SDE2E3FGHIRWXY/LB1

Departure

Time 2026-04-25 20:24
Airport Geneva International Airport (LSGG)

Arrival

Time 2026-04-25 20:54
Airport Zürich Airport (LSZH)
Time Latitude Longitude Altitude Speed Heading
2026-04-25 19:58 46.23422 6.10983 1395 ft 0 kts 135°
2026-04-25 20:13 46.23435 6.10967 1408 ft 4 kts 189°
2026-04-25 20:13 46.23452 6.10985 1401 ft 2 kts 226°
2026-04-25 20:13 46.23453 6.10987 1402 ft 0 kts 225°
2026-04-25 20:16 46.23431 6.10955 1407 ft 10 kts 226°
2026-04-25 20:16 46.23361 6.10849 1397 ft 14 kts 227°
2026-04-25 20:16 46.23382 6.10758 1405 ft 10 kts 325°
2026-04-25 20:16 46.23423 6.10663 1407 ft 12 kts 249°
2026-04-25 20:17 46.23350 6.10569 1408 ft 19 kts 223°
2026-04-25 20:17 46.23225 6.10384 1410 ft 31 kts 227°
2026-04-25 20:17 46.23064 6.10138 1411 ft 34 kts 227°
2026-04-25 20:17 46.22915 6.09904 1412 ft 28 kts 227°
2026-04-25 20:18 46.22838 6.09787 1418 ft 14 kts 224°
2026-04-25 20:18 46.22770 6.09699 1417 ft 17 kts 222°
2026-04-25 20:18 46.22665 6.09551 1421 ft 22 kts 226°
2026-04-25 20:18 46.22566 6.09392 1423 ft 16 kts 242°
2026-04-25 20:19 46.22562 6.09340 1424 ft 1 kts 265°
2026-04-25 20:19 46.22558 6.09283 1423 ft 0 kts 265°
2026-04-25 20:20 46.22558 6.09267 1423 ft 7 kts 266°
2026-04-25 20:20 46.22557 6.09252 1423 ft 0 kts 266°
2026-04-25 20:22 46.22557 6.09246 1423 ft 5 kts 266°
2026-04-25 20:22 46.22608 6.09156 1425 ft 12 kts
2026-04-25 20:23 46.22628 6.09178 1426 ft 0 kts 42°
2026-04-25 20:23 46.22637 6.09190 1426 ft 12 kts 41°
2026-04-25 20:24 46.22935 6.09620 1417 ft 108 kts 46°
2026-04-25 20:24 46.23601 6.10672 1653 ft 158 kts 49°
2026-04-25 20:24 46.24401 6.11905 2361 ft 180 kts 44°
2026-04-25 20:24 46.25341 6.13270 2794 ft 204 kts 44°
2026-04-25 20:25 46.26405 6.14802 3254 ft 228 kts 44°
2026-04-25 20:25 46.27589 6.16512 3770 ft 252 kts 44°
2026-04-25 20:25 46.28850 6.18345 4586 ft 261 kts 45°
2026-04-25 20:25 46.30140 6.20229 5547 ft 266 kts 46°
2026-04-25 20:26 46.31452 6.22156 6488 ft 270 kts 46°
2026-04-25 20:26 46.32778 6.24107 7364 ft 275 kts 46°
2026-04-25 20:26 46.34133 6.26101 8261 ft 280 kts 45°
2026-04-25 20:26 46.35510 6.28130 9147 ft 285 kts 46°
2026-04-25 20:27 46.36697 6.30442 10039 ft 291 kts 60°
2026-04-25 20:27 46.37479 6.33219 10534 ft 310 kts 73°
2026-04-25 20:27 46.38099 6.36335 10813 ft 334 kts 73°
2026-04-25 20:27 46.38770 6.39729 11114 ft 355 kts 73°
2026-04-25 20:28 46.39462 6.43203 11758 ft 362 kts 73°
2026-04-25 20:28 46.40166 6.46725 12509 ft 367 kts 72°
2026-04-25 20:28 46.40879 6.50295 13266 ft 370 kts 72°
2026-04-25 20:28 46.41599 6.53895 14016 ft 374 kts 72°
2026-04-25 20:29 46.42326 6.57539 14671 ft 378 kts 72°
2026-04-25 20:29 46.43057 6.61213 14999 ft 381 kts 72°
2026-04-25 20:29 46.43843 6.64876 15082 ft 380 kts 67°
2026-04-25 20:29 46.44950 6.68328 15247 ft 377 kts 58°
2026-04-25 20:30 46.46413 6.71479 15488 ft 377 kts 50°
2026-04-25 20:30 46.48047 6.74470 15741 ft 378 kts 49°
2026-04-25 20:30 46.49694 6.77454 15990 ft 380 kts 49°
2026-04-25 20:30 46.51359 6.80452 16097 ft 386 kts 49°
2026-04-25 20:31 46.53095 6.83565 16117 ft 408 kts 49°
2026-04-25 20:31 46.54909 6.86822 16121 ft 418 kts 49°
2026-04-25 20:31 46.56743 6.90123 16123 ft 421 kts 49°
2026-04-25 20:31 46.58581 6.93427 16129 ft 421 kts 49°
2026-04-25 20:32 46.60455 6.96790 16132 ft 421 kts 49°
2026-04-25 20:32 46.62298 7.00098 16128 ft 421 kts 49°
2026-04-25 20:32 46.64141 7.03411 16133 ft 421 kts 49°
2026-04-25 20:32 46.65981 7.06725 16129 ft 421 kts 49°
2026-04-25 20:33 46.67812 7.10031 16132 ft 421 kts 49°
2026-04-25 20:33 46.69655 7.13366 16133 ft 421 kts 49°
2026-04-25 20:33 46.71490 7.16695 16135 ft 421 kts 49°
2026-04-25 20:33 46.72086 7.17777 16132 ft 422 kts 49°
2026-04-25 20:34 46.75160 7.23374 16133 ft 422 kts 49°
2026-04-25 20:34 46.76995 7.26713 16139 ft 422 kts 49°
2026-04-25 20:34 46.78833 7.30054 16144 ft 422 kts 49°
2026-04-25 20:34 46.80667 7.33394 16149 ft 422 kts 49°
2026-04-25 20:35 46.82502 7.36743 16157 ft 422 kts 49°
2026-04-25 20:35 46.84337 7.40097 16157 ft 422 kts 49°
2026-04-25 20:35 46.86042 7.43221 16158 ft 422 kts 49°
2026-04-25 20:35 46.87823 7.46488 16161 ft 422 kts 49°
2026-04-25 20:36 46.89651 7.49852 16161 ft 423 kts 49°
2026-04-25 20:36 46.91478 7.53217 16161 ft 423 kts 49°
2026-04-25 20:36 46.93305 7.56589 16160 ft 423 kts 49°
2026-04-25 20:36 46.95130 7.59960 16162 ft 423 kts 49°
2026-04-25 20:37 46.96956 7.63334 16163 ft 423 kts 49°
2026-04-25 20:37 46.98785 7.66711 16161 ft 423 kts 49°
2026-04-25 20:37 47.00613 7.70083 16157 ft 423 kts 49°
2026-04-25 20:37 47.02440 7.73457 16157 ft 423 kts 49°
2026-04-25 20:38 47.04267 7.76831 16153 ft 423 kts 49°
2026-04-25 20:38 47.06091 7.80208 16152 ft 423 kts 49°
2026-04-25 20:38 47.07324 7.82498 16150 ft 423 kts 49°
2026-04-25 20:38 47.09084 7.85784 16154 ft 423 kts 49°
2026-04-25 20:39 47.10902 7.89182 16159 ft 423 kts 49°
2026-04-25 20:39 47.12709 7.92584 16164 ft 424 kts 51°
2026-04-25 20:39 47.14246 7.96279 16157 ft 420 kts 61°
2026-04-25 20:39 47.15065 7.98810 15984 ft 410 kts 62°
2026-04-25 20:40 47.16664 8.03829 15278 ft 402 kts 63°
2026-04-25 20:40 47.17688 8.07046 14770 ft 399 kts 63°
2026-04-25 20:40 47.18790 8.10503 14191 ft 396 kts 63°
2026-04-25 20:40 47.20063 8.14075 13548 ft 393 kts 61°
2026-04-25 20:41 47.20951 8.17850 12895 ft 392 kts 77°
2026-04-25 20:41 47.21445 8.21773 12222 ft 389 kts 78°
2026-04-25 20:41 47.21922 8.25679 11531 ft 386 kts 78°
2026-04-25 20:41 47.22399 8.29544 10862 ft 383 kts 79°
2026-04-25 20:42 47.22877 8.33364 10427 ft 374 kts 78°
2026-04-25 20:42 47.23379 8.37014 10298 ft 355 kts 75°
2026-04-25 20:42 47.24003 8.40451 10130 ft 340 kts 73°
2026-04-25 20:42 47.24617 8.43731 9997 ft 326 kts 73°
2026-04-25 20:43 47.25206 8.46881 9872 ft 313 kts 73°
2026-04-25 20:43 47.25771 8.49909 9729 ft 301 kts 73°
2026-04-25 20:43 47.26319 8.52852 9444 ft 296 kts 73°
2026-04-25 20:43 47.26870 8.55799 9070 ft 293 kts 73°
2026-04-25 20:44 47.27409 8.58682 8698 ft 291 kts 73°
2026-04-25 20:44 47.27948 8.61544 8313 ft 289 kts 73°
2026-04-25 20:44 47.28485 8.64383 7934 ft 287 kts 73°
2026-04-25 20:44 47.29022 8.67202 7545 ft 285 kts 74°
2026-04-25 20:45 47.29559 8.70005 7160 ft 283 kts 74°
2026-04-25 20:45 47.30094 8.72779 7024 ft 281 kts 74°
2026-04-25 20:45 47.30615 8.75473 7033 ft 264 kts 73°
2026-04-25 20:45 47.31107 8.78017 7025 ft 255 kts 74°
2026-04-25 20:46 47.31592 8.80530 7034 ft 254 kts 73°
2026-04-25 20:46 47.32075 8.83035 7028 ft 254 kts 73°
2026-04-25 20:46 47.32557 8.85539 7025 ft 254 kts 73°
2026-04-25 20:46 47.33036 8.88029 6731 ft 251 kts 74°
2026-04-25 20:47 47.33729 8.90363 6400 ft 248 kts 51°
2026-04-25 20:47 47.35064 8.91849 6176 ft 237 kts 18°
2026-04-25 20:47 47.36639 8.92293 6067 ft 226 kts
2026-04-25 20:47 47.38194 8.92482 5985 ft 223 kts
2026-04-25 20:48 47.39733 8.92485 6000 ft 221 kts 346°
2026-04-25 20:48 47.41085 8.91483 5999 ft 219 kts 320°
2026-04-25 20:48 47.42205 8.89968 5770 ft 218 kts 315°
2026-04-25 20:48 47.43269 8.88394 5564 ft 213 kts 314°
2026-04-25 20:49 47.44287 8.86864 5434 ft 205 kts 314°
2026-04-25 20:49 47.45266 8.85381 5307 ft 197 kts 314°
2026-04-25 20:49 47.46202 8.83925 5112 ft 195 kts 309°
2026-04-25 20:49 47.46738 8.82102 5017 ft 195 kts 276°
2026-04-25 20:50 47.46738 8.80103 5006 ft 194 kts 266°
2026-04-25 20:50 47.46557 8.78189 5001 ft 184 kts 260°
2026-04-25 20:50 47.46282 8.76360 5006 ft 181 kts 253°
2026-04-25 20:50 47.45894 8.74595 5010 ft 180 kts 253°
2026-04-25 20:51 47.45534 8.72823 5002 ft 179 kts 254°
2026-04-25 20:51 47.45281 8.71032 4772 ft 178 kts 266°
2026-04-25 20:51 47.45232 8.69204 4498 ft 178 kts 271°
2026-04-25 20:51 47.45256 8.67385 4239 ft 175 kts 272°
2026-04-25 20:52 47.45286 8.65623 3961 ft 167 kts 273°
2026-04-25 20:52 47.45301 8.64520 3762 ft 160 kts 274°
2026-04-25 20:52 47.45353 8.62309 3127 ft 162 kts 275°
2026-04-25 20:52 47.45424 8.60638 2548 ft 166 kts 276°
2026-04-25 20:53 47.45541 8.58970 2109 ft 161 kts 277°
2026-04-25 20:53 47.45648 8.57326 1583 ft 162 kts 276°
2026-04-25 20:53 47.45711 8.56324 1422 ft 149 kts 276°
2026-04-25 20:53 47.45780 8.55352 1401 ft 51 kts 275°
2026-04-25 20:54 47.45803 8.54916 1395 ft 29 kts 263°
2026-04-25 20:54 47.45808 8.54684 1399 ft 24 kts 270°
2026-04-25 20:54 47.45793 8.54417 1399 ft 21 kts 257°
2026-04-25 20:54 47.45727 8.54226 1400 ft 23 kts 225°
2026-04-25 20:55 47.45640 8.54242 1393 ft 14 kts 136°
2026-04-25 20:55 47.45572 8.54437 1397 ft 26 kts 109°
2026-04-25 20:55 47.45526 8.54668 1402 ft 20 kts 107°
2026-04-25 20:55 47.45486 8.54850 1403 ft 17 kts 105°
2026-04-25 20:56 47.45454 8.54999 1405 ft 13 kts 109°
2026-04-25 20:56 47.45428 8.55108 1409 ft 11 kts 108°
2026-04-25 20:56 47.45391 8.55274 1401 ft 18 kts 114°
2026-04-25 20:56 47.45322 8.55444 1402 ft 21 kts 122°
2026-04-25 20:57 47.45275 8.55606 1397 ft 18 kts 98°
2026-04-25 20:57 47.45263 8.55767 1397 ft 15 kts 98°
2026-04-25 20:57 47.45252 8.55883 1399 ft 10 kts 97°
2026-04-25 20:57 47.45289 8.55936 1397 ft 7 kts 10°
2026-04-25 20:58 47.45329 8.55944 1405 ft 0 kts